Tracking 22879 objects as of 21-Apr-2021
HD Live streaming from Space Station
objects crossing your sky now

FLOCK 3S 3

Track FLOCK 3S 3 now!
10-day predictions
FLOCK 3S 3 is classified as:


NORAD ID: 43788
Int'l Code: 2018-099AG
Perigee: 577.7 km
Apogee: 596.8 km
Inclination: 97.7 °
Period: 96.3 minutes
Semi major axis: 6958 km
RCS: Unknown
Launch date: December 3, 2018
Source: United States (US)
Launch site: AIR FORCE WESTERN TEST RANGE (AFWTR)
aabbcc
Your satellite tracking list
Your tracking list is empty




NASA's NSSDC Master Catalog

Two Line Element Set (TLE):
1 43788U 18099AG  21111.25580278  .00001115  00000-0  10509-3 0  9996
2 43788  97.6712 183.3553 0013734 239.7488 120.2374 14.95738920129932
Source of the keplerian elements: AFSPC